[[{"header":{"parameterUnit":"m.s-1","parameterCategory":1,"la1":30.2991,"la2":30.254,"lo1":-89.0895,"lo2":-89.0444,"dy":0.0017,"dx":0.0017,"nx":28,"ny":28,"refTime":"2024-04-28T03:00:00:Z","depth":0,"parameterNumber":2,"parameterNumberName":"U-component_of_WINDS"},"data":[0,0,0,0,0,0,0,0,0,0,0,0,0,0,0,0,0,0,0,0,0,0,0,0,0,0,0,0,0,0,0,0,0,0,0,0,0,0,0,0,0,0,0,0,0,0,0,0,0,0,0,0,0,0,0,0,0,0,-8.2911,-8.2913,0,-8.3116,-8.3118,-8.312,-8.3148,-8.3147,-8.3145,-8.3143,-8.3346,-8.3353,-8.336,0,0,0,0,0,0,0,0,0,0,0,0,0,-8.2542,-8.2548,-8.2911,-8.2914,-8.2916,-8.3115,-8.3118,-8.3121,-8.3149,-8.3147,-8.3144,-8.3142,-8.3344,-8.3352,-8.3361,0,0,0,0,0,0,0,0,0,0,0,0,0,-8.2719,-8.255,-8.2911,-8.2954,-8.296,-8.3115,-8.3118,-8.3121,-8.3149,-8.3146,-8.3144,-8.3141,-8.3341,-8.3352,-8.3362,-8.3485,0,0,-8.3395,-8.34,0,0,0,0,0,0,0,0,-8.2709,-8.2733,-8.2945,-8.2952,-8.2959,-8.3104,-8.3062,-8.3243,-8.315,-8.3077,-8.3143,-8.314,-8.3268,-8.3284,-8.3329,-8.3495,-8.3504,-8.3396,-8.3403,-8.3407,-8.341,0,0,0,0,0,0,0,-8.2697,-8.2724,-8.2992,-8.2948,-8.2956,-8.2963,-8.2985,-8.3097,-8.3186,-8.3083,-8.3086,-8.311,-8.3271,-8.3318,-8.3333,-8.3507,-8.3396,-8.3405,-8.3412,-8.3416,-8.3785,-8.3788,0,0,0,0,0,0,-8.2677,-8.2714,-8.2985,-8.2998,-8.2825,-8.2972,-8.2996,-8.306,-8.3185,-8.3201,-8.3112,-8.3111,-8.3301,-8.3321,-8.3341,-8.3493,-8.3407,-8.3417,-8.3423,-8.3782,-8.3786,-8.379,0,0,0,0,0,0,-8.2669,-8.2701,-8.2977,-8.2857,-8.2892,-8.2981,-8.3052,-8.3065,-8.3113,-8.3207,-8.3222,-8.3145,-8.33,-8.3326,-8.345,-8.35,-8.3422,-8.3432,-8.3778,-8.3783,-8.3788,-8.3797,0,0,0,0,0,0,-8.2658,-8.2698,-8.2746,-8.2858,-8.2899,-8.3083,-8.3055,-8.3071,-8.3132,-8.3132,-8.3241,-8.3256,-8.3299,-8.3434,-8.346,-8.3513,-8.344,-8.3774,-8.378,-8.3786,-8.3793,-8.3802,-8.381,0,0,0,0,0,-8.2645,-8.2739,-8.2748,-8.2781,-8.2961,-8.3086,-8.3109,-8.3159,-8.3136,-8.3185,-8.3245,-8.3253,-8.3491,-8.3446,-8.3477,-8.3533,-8.3771,-8.3778,-8.3786,-8.3789,-8.38,-8.3809,0,0,0,0,0,0,-8.2628,-8.2754,-8.2766,-8.2899,-8.2982,-8.3091,-8.3153,-8.3169,-8.3258,-8.3254,-8.331,-8.3335,-8.3456,-8.3508,-8.3455,-8.366,-8.3629,-8.3643,-8.3621,-8.3632,-8.364,-8.3623,-8.3449,0,0,0,0,0,-8.2641,-8.2734,-8.2838,-8.2946,-8.2987,-8.3063,-8.312,-8.3151,-8.3238,-8.3273,-8.3342,-8.3425,-8.3519,-8.3579,-8.3671,-8.3802,-8.3825,-8.3857,-8.3865,-8.3872,-8.3881,-8.3955,-8.3969,-8.3814,-8.3814,-8.3814,0,0,-8.2666,-8.2746,-8.2801,-8.2945,-8.3012,-8.3106,-8.3092,-8.3191,-8.3261,-8.3287,-8.3408,-8.3463,-8.356,-8.3688,-8.3748,-8.3735,-8.3931,-8.3881,-8.3886,-8.3892,-8.3964,-8.3978,-8.3991,-8.3819,-8.3818,-8.3818,0,0,-8.2759,-8.283,-8.2927,-8.2997,-8.3101,-8.3152,-8.3175,-8.3283,-8.3321,-8.3445,-8.3467,-8.355,-8.3711,-8.3778,-8.3834,-8.3958,-8.3967,-8.3986,-8.4028,-8.4099,-8.4111,-8.4122,-8.4164,-8.4179,-8.3997,-8.3997,-8.3997,0,-8.2776,-8.2919,-8.2975,-8.3074,-8.3136,-8.3169,-8.3267,-8.3331,-8.3459,-8.35,-8.3485,-8.3688,-8.3756,-8.39,-8.3931,-8.3975,-8.4003,-8.3971,-8.4106,-8.4117,-8.4128,-8.4169,-8.4185,-8.3998,-8.3998,-8.3998,-8.3998,0,-8.2934,-8.3033,-8.3099,-8.3225,-8.3295,-8.3393,-8.3463,-8.3527,-8.3554,-8.3606,-8.3732,-8.3815,-8.3924,-8.3962,-8.3988,-8.4111,-8.4099,-8.4094,-8.4063,-8.4143,-8.4182,-8.4199,-8.4,-8.3999,-8.3999,-8.3999,0,0,-8.3017,-8.3175,-8.3198,-8.3256,-8.3375,-8.3452,-8.3553,-8.3662,-8.3715,-8.3804,-8.3887,-8.4025,-8.4022,-8.4085,-8.412,-8.4183,-8.4273,-8.417,-8.4173,-8.4184,-8.4412,-8.4412,-8.443,-8.4283,-8.4286,-8.4289,-8.4403,0,-8.3122,-8.3302,-8.3357,-8.3508,-8.3599,-8.3634,-8.3721,-8.3803,-8.3856,-8.3941,-8.3999,-8.4094,-8.4084,-8.4123,-8.4187,-8.4249,-8.4319,-8.4242,-8.4359,-8.4363,-8.433,-8.445,-8.4451,-8.4554,-8.4419,-8.4422,-8.4424,0,-8.3266,-8.336,-8.352,-8.363,-8.367,-8.3747,-8.3853,-8.3934,-8.4029,-8.4063,-8.4135,-8.4166,-8.4271,-8.4238,-8.4383,-8.4329,-8.4382,-8.442,-8.4425,-8.4434,-8.4395,-8.446,-8.4589,-8.4603,-8.4449,-8.4447,-8.4445,0,-8.3307,-8.3474,-8.3591,-8.364,-8.3771,-8.3825,-8.3881,-8.3974,-8.4036,-8.4128,-8.4169,-8.4272,-8.4327,-8.4406,-8.4463,-8.4435,-8.4603,-8.4575,-8.4632,-8.463,-8.4662,-8.4658,-8.4797,-8.4702,-8.4701,-8.4701,-8.4701,0,-8.3416,-8.3512,-8.3612,-8.3683,-8.3792,-8.3856,-8.3961,-8.402,-8.4102,-8.4185,-8.4222,-8.4299,-8.4372,-8.4458,-8.4504,-8.4617,-8.4642,-8.4671,-8.4681,-8.4666,-8.4661,-8.4697,-8.469,-8.4705,-8.4704,-8.4704,-8.4703,0,-8.3478,-8.3549,-8.3679,-8.3795,-8.3826,-8.3901,-8.3999,-8.4069,-8.4126,-8.423,-8.4259,-8.4346,-8.445,-8.4517,-8.4648,-8.468,-8.4802,-8.4811,-8.477,-8.4774,-8.4826,-8.4819,-8.499,-8.5015,-8.4905,-8.4906,-8.4907,0,-8.3541,-8.3616,-8.374,-8.38,-8.3858,-8.3953,-8.4018,-8.4084,-8.415,-8.4265,-8.4322,-8.4429,-8.4518,-8.4683,-8.4757,-8.4858,-8.4869,-8.4922,-8.4884,-8.4866,-8.4866,-8.486,-8.4867,-8.4926,-8.4927,-8.4928,-8.4929,0,-8.3644,-8.3677,-8.377,-8.3876,-8.3953,-8.404,-8.4126,-8.4172,-8.4253,-8.4326,-8.4434,-8.4503,-8.464,-8.4745,-8.4854,-8.4912,-8.4933,-8.4941,-8.4959,-8.4941,-8.4913,-8.4927,-8.4783,-8.4935,-8.4935,-8.4934,-8.4934,-8.4934,-8.3707,-8.3775,-8.3874,-8.3977,-8.405,-8.413,-8.4202,-8.4269,-8.4361,-8.4478,-8.4513,-8.4625,-8.4719,-8.4868,-8.4929,-8.5017,-8.501,-8.5036,-8.5043,-8.5047,-8.5047,-8.4903,-8.5037,-8.5037,-8.5037,-8.5037,-8.5037,0,-8.3809,-8.3876,-8.397,-8.4091,-8.4172,-8.419,-8.4287,-8.4353,-8.4452,-8.4539,-8.4627,-8.4752,-8.4855,-8.494,-8.5046,-8.5101,-8.5113,-8.5126,-8.512,-8.5133,-8.5048,-8.502,-8.5114,-8.5114,-8.5114,-8.5114,-8.5114,-8.5114,-8.3872,-8.3989,-8.4033,-8.4186,-8.4252,-8.4364,-8.4418,-8.4492,-8.4562,-8.47,-8.4787,-8.4843,-8.4929,-8.5043,-8.5138,-8.516,-8.5196,-8.5207,-8.523,-8.5148,-8.5139,-8.5131,-8.5105,-8.5215,-8.5215,-8.5308,-8.5309,-8.5309]},{"header":{"parameterUnit":"m.s-1","parameterCategory":1,"la1":30.2991,"la2":30.254,"lo1":-89.0895,"lo2":-89.0444,"dy":0.0017,"dx":0.0017,"nx":28,"ny":28,"refTime":"2024-04-28T03:00:00:Z","depth":0,"parameterNumber":3,"parameterNumberName":"V-component_of_WINDS"},"data":[0,0,0,0,0,0,0,0,0,0,0,0,0,0,0,0,0,0,0,0,0,0,0,0,0,0,0,0,0,0,0,0,0,0,0,0,0,0,0,0,0,0,0,0,0,0,0,0,0,0,0,0,0,0,0,0,0,0,5.5542,5.5542,0,5.5592,5.5592,5.5593,5.5609,5.5609,5.5609,5.5609,5.5657,5.5658,5.566,0,0,0,0,0,0,0,0,0,0,0,0,0,5.5459,5.546,5.5541,5.5542,5.5543,5.5592,5.5592,5.5593,5.5609,5.5609,5.5609,5.5609,5.5657,5.5658,5.566,0,0,0,0,0,0,0,0,0,0,0,0,0,5.55,5.5461,5.5541,5.5557,5.5559,5.5592,5.5592,5.5593,5.5609,5.5609,5.5609,5.5608,5.5656,5.5658,5.566,5.568,0,0,5.5667,5.5668,0,0,0,0,0,0,0,0,5.5498,5.5503,5.5554,5.5556,5.5558,5.5594,5.5581,5.5622,5.561,5.559,5.5609,5.5608,5.5636,5.564,5.565,5.5683,5.5685,5.5667,5.5669,5.567,5.567,0,0,0,0,0,0,0,5.5495,5.5501,5.5561,5.5555,5.5557,5.5561,5.5567,5.5589,5.5614,5.5592,5.5593,5.5599,5.5637,5.5648,5.5651,5.5686,5.5667,5.5669,5.5671,5.5671,5.574,5.5741,0,0,0,0,0,0,5.549,5.5499,5.556,5.5563,5.5527,5.5563,5.5569,5.5583,5.5614,5.5619,5.5599,5.56,5.5644,5.5649,5.5653,5.568,5.567,5.5672,5.5673,5.574,5.574,5.5741,0,0,0,0,0,0,5.5488,5.5495,5.5558,5.5531,5.554,5.5565,5.558,5.5584,5.5595,5.562,5.5624,5.5606,5.5644,5.565,5.5674,5.5682,5.5673,5.5675,5.5739,5.574,5.5741,5.5734,0,0,0,0,0,0,5.5485,5.5494,5.5502,5.5531,5.5541,5.5578,5.558,5.5585,5.5599,5.56,5.5627,5.5631,5.5644,5.5671,5.5677,5.5685,5.5676,5.5739,5.5739,5.574,5.5734,5.5735,5.5735,0,0,0,0,0,5.5482,5.5497,5.5502,5.551,5.5551,5.5579,5.5584,5.56,5.5599,5.5608,5.5624,5.563,5.5681,5.5673,5.568,5.5689,5.5738,5.5739,5.574,5.5733,5.5734,5.5735,0,0,0,0,0,0,5.5466,5.5501,5.5507,5.5532,5.5553,5.5581,5.5592,5.56,5.5621,5.562,5.5639,5.5645,5.5668,5.5681,5.5672,5.5712,5.571,5.5712,5.5702,5.5703,5.5704,5.57,5.5678,0,0,0,0,0,5.5466,5.5486,5.5515,5.5533,5.5544,5.5566,5.5579,5.559,5.5611,5.562,5.5638,5.5658,5.5679,5.5692,5.5712,5.5736,5.5743,5.5746,5.5747,5.5747,5.5749,5.5765,5.5767,5.5744,5.5744,5.5744,0,0,5.5464,5.5486,5.5497,5.5531,5.5548,5.5569,5.5573,5.5594,5.5609,5.5622,5.5647,5.5662,5.5686,5.5711,5.5722,5.5722,5.5757,5.5749,5.5749,5.575,5.5766,5.5768,5.577,5.5745,5.5745,5.5745,0,0,5.5472,5.549,5.5509,5.5527,5.5554,5.5569,5.5574,5.5603,5.5613,5.5639,5.565,5.5669,5.5703,5.5721,5.5734,5.5753,5.5759,5.5759,5.5762,5.5777,5.5779,5.5781,5.5788,5.5791,5.576,5.576,5.576,0,5.5466,5.5498,5.5517,5.5538,5.5554,5.5569,5.5588,5.5605,5.5636,5.5646,5.5646,5.5692,5.5709,5.5739,5.5744,5.5754,5.576,5.5755,5.5777,5.5779,5.5781,5.5789,5.5791,5.576,5.576,5.576,5.576,0,5.549,5.5513,5.5524,5.5557,5.5574,5.5594,5.5616,5.5631,5.5641,5.5657,5.5684,5.5706,5.5732,5.574,5.5749,5.5772,5.5771,5.5774,5.5772,5.5783,5.579,5.5793,5.576,5.576,5.576,5.576,0,0,5.5487,5.5533,5.5537,5.5553,5.5585,5.5603,5.5624,5.5651,5.5664,5.5686,5.5705,5.5736,5.574,5.5755,5.5767,5.578,5.5795,5.5781,5.5782,5.5784,5.5824,5.5822,5.5825,5.58,5.5801,5.5801,5.5822,0,5.5499,5.554,5.5559,5.5591,5.5612,5.5629,5.5648,5.567,5.5686,5.5707,5.5724,5.5746,5.5748,5.5758,5.5772,5.579,5.5804,5.5789,5.5818,5.5819,5.5812,5.5828,5.5826,5.5844,5.5825,5.5826,5.5826,0,5.5519,5.5543,5.5578,5.5611,5.5621,5.5637,5.5665,5.5685,5.5711,5.5722,5.5741,5.5753,5.5777,5.5774,5.5808,5.5798,5.5811,5.5822,5.5823,5.5826,5.5823,5.5832,5.585,5.5853,5.583,5.583,5.583,0,5.5514,5.5556,5.5582,5.5596,5.5634,5.5646,5.5662,5.5689,5.5705,5.5729,5.574,5.5766,5.578,5.58,5.582,5.5816,5.5852,5.5851,5.5862,5.5861,5.5868,5.5867,5.5888,5.5876,5.5876,5.5876,5.5876,0,5.5526,5.5547,5.5581,5.5598,5.5622,5.5645,5.5668,5.5685,5.5709,5.5729,5.5745,5.5763,5.5788,5.5809,5.5824,5.5851,5.5857,5.5867,5.587,5.5865,5.5864,5.5874,5.5873,5.5877,5.5877,5.5877,5.5877,0,5.5524,5.5548,5.5579,5.5614,5.5624,5.564,5.567,5.5687,5.5705,5.5731,5.5738,5.5766,5.5793,5.5814,5.5848,5.5859,5.5887,5.5891,5.5878,5.588,5.5891,5.589,5.5919,5.5925,5.5908,5.5908,5.5908,0,5.553,5.5547,5.5585,5.5601,5.5618,5.5642,5.566,5.5683,5.5701,5.5734,5.5747,5.5775,5.5799,5.5841,5.5864,5.5891,5.5896,5.5905,5.59,5.5896,5.5898,5.5896,5.5899,5.5905,5.5905,5.5905,5.5905,0,5.5539,5.5551,5.5576,5.5606,5.5627,5.5651,5.5676,5.5688,5.5716,5.5735,5.5764,5.5783,5.582,5.5848,5.5878,5.5895,5.5905,5.5907,5.5911,5.5906,5.5899,5.5904,5.588,5.5906,5.5906,5.5906,5.5906,5.5906,5.5541,5.5558,5.5589,5.5617,5.5639,5.5662,5.5681,5.5702,5.5727,5.576,5.5773,5.5802,5.583,5.5872,5.589,5.5913,5.5914,5.592,5.5921,5.5922,5.5922,5.5895,5.5919,5.5919,5.5919,5.5919,5.5919,0,5.5551,5.5573,5.5599,5.5634,5.5657,5.5667,5.5696,5.5714,5.574,5.5766,5.5791,5.5825,5.5853,5.588,5.591,5.5924,5.5929,5.5931,5.593,5.5934,5.5919,5.5913,5.5926,5.5926,5.5926,5.5926,5.5926,5.5926,5.5559,5.5589,5.5605,5.5646,5.5667,5.5698,5.5714,5.5736,5.5757,5.5795,5.582,5.5838,5.5864,5.5897,5.5923,5.5931,5.5941,5.5941,5.595,5.5935,5.5934,5.5933,5.5928,5.5943,5.5943,5.5962,5.5962,5.5963]}]]